Terug naar catalogus

FREGAT DEB

LostUNKNOWN
NORAD 45871·DEBRIS·🇷🇺 Russia

Gelanceerd Jul 18, 2011 vanaf Baikonur Cosmodrome

Loading…

Volgende Passages (komende 24 uur)

TLE

VerouderdSource: Space-Track

Epoch: Aug 18, 2020, 01:48 UTC

1 45871U 11037CV  20231.07526293 -.00001150  00000-0 -14234-2 0  9994
2 45871  51.1489 255.7446 2377792 130.5172 252.8410  9.86612317  8007

Volg FREGAT DEB in realtime met AllMySat

Download on the App Store